Location: ??
(34.9170°N, 135.5016°E)
Time: 16:09:26
(UTC+00:00)

Cosmos 1606 Rocket - Visible Passes

Search period start: 24 June 2021 00:00
Search period end: 04 July 2021 00:00
Orbit: 604 x 631 km, 82.5° (Epoch: 24 June)

Date Brightness Start Highest point End Pass type
(mag) Time Alt. Az. Time Alt. Az. Time Alt. Az.
24 Jun 3.7 13:03:13 10° N 13:07:10 70° N 13:07:10 70° N visible
25 Jun 5.7 11:44:33 10° NE 11:46:21 12° ENE 11:46:55 12° E visible
25 Jun 4.4 13:20:11 10° NNW 13:24:02 44° WNW 13:24:02 44° WNW visible
26 Jun 4.9 11:59:52 10° NNE 12:03:24 23° ENE 12:03:48 23° E visible
26 Jun 5.4 13:37:34 10° NW 13:40:56 24° W 13:40:56 24° W visible
27 Jun 4.0 12:16:07 10° N 12:20:21 43° E 12:20:42 42° E visible
27 Jun 6.1 13:55:52 10° WNW 13:57:41 12° W 13:57:50 12° W visible
28 Jun 3.4 12:32:45 10° N 12:37:12 88° E 12:37:38 72° SSE visible
29 Jun 5.6 11:14:05 10° NE 11:15:52 12° ENE 11:17:27 10° E visible
29 Jun 4.3 12:49:44 10° NNW 12:53:57 46° W 12:54:35 42° WSW visible
30 Jun 4.9 11:29:24 10° NNE 11:32:55 23° ENE 11:34:25 19° ESE visible
30 Jun 5.4 13:07:06 10° NW 13:10:37 24° W 13:11:33 22° WSW visible
01 Jul 4.0 11:45:39 10° N 11:49:52 43° E 11:51:24 31° SE visible
01 Jul 6.2 13:25:26 10° WNW 13:27:12 12° W 13:28:32 11° WSW visible
02 Jul 3.4 12:02:17 10° N 12:06:43 88° E 12:08:25 37° S visible
03 Jul 5.6 10:43:37 10° NE 10:45:23 12° ENE 10:47:09 10° E visible
03 Jul 4.4 12:19:16 10° NNW 12:23:28 45° W 12:25:26 27° SSW visible
